Probability
0 0 0 0 0 0 0 0 0 0 0 0 0 0 0 0 0 0 0 0 0 0 0 0 0 0 0 0 0 1 1 0 0 0 0 0 0 0 0 0 0 0 0
0 0 0 0 0 0 0 0 0 0 0 0 0 0 0 0 0 0 0 0 0 0 0 0 0 0 0 0 0 1 2 1 0 0 0 0 0 0 0 0 0 0 0
0 0 0 0 0 0 0 0 0 0 0 0 0 0 0 0 0 0 0 1 0 0 0 0 0 0 0 0 0 1 1 1 0 0 0 0 0 0 0 0 0 0 0
0 0 0 0 0 0 0 0 0 0 0 0 0 0 0 0 0 0 0 0 0 0 0 0 0 0 0 0 0 0 0 0 0 0 0 0 0 0 0 0 0 0 0
0 0 0 0 0 0 0 0 0 0 0 0 0 0 0 0 0 0 0 0 0 0 0 0 0 0 0 0 0 0 0 0 0 0 0 0 0 0 0 0 1 1 0
0 0 0 0 0 0 0 0 0 0 0 0 0 0 0 0 0 0 0 0 0 0 0 0 0 0 0 0 0 0 0 0 0 0 0 0 0 1 1 1 2 2 1
0 0 0 0 0 0 0 0 0 0 0 0 0 0 0 0 0 0 0 0 0 0 0 0 0 0 0 0 0 0 0 0 0 0 0 0 1 2 2 2 3 2 1
0 0 0 0 0 0 0 0 0 0 0 0 0 0 0 0 0 0 0 0 0 0 0 0 0 0 0 0 0 0 0 0 0 0 0 1 2 2 2 2 2 2 1
0 0 0 0 0 0 0 0 0 0 0 0 0 0 0 0 0 0 0 0 0 0 0 0 0 0 0 0 0 0 0 0 0 0 0 1 2 2 1 1 1 1 1
0 0 0 0 0 0 0 0 0 0 0 0 0 0 0 0 0 0 0 0 0 0 0 0 0 0 0 0 0 0 0 0 0 0 0 0 1 1 0 0 0 1 2
0 0 0 0 1 1 1 1 0 0 0 0 0 0 0 0 0 0 0 0 0 0 0 0 0 0 0 0 0 0 0 0 0 0 0 0 1 1 1 1 1 1 2
0 0 0 0 1 2 2 2 1 0 0 0 0 0 0 0 0 0 0 0 0 0 0 0 0 0 0 0 0 0 0 0 0 0 0 1 2 2 1 1 1 2 3
0 0 0 0 0 1 2 2 1 0 0 0 0 0 0 0 0 0 0 0 0 0 0 0 0 0 0 0 0 0 0 0 0 0 0 1 2 3 3 1 1 2 2
0 0 0 0 0 0 1 1 1 0 0 0 0 0 0 0 0 0 0 0 0 0 0 0 0 0 0 0 0 0 0 0 0 0 0 1 2 2 4 4 3 3 2
0 0 0 0 0 0 0 0 0 0 0 0 0 0 0 0 0 0 0 0 0 0 0 0 0 0 0 0 0 0 0 0 0 0 0 1 1 1 3 4 5 5 4
0 0 0 0 0 0 0 0 0 0 0 0 0 0 0 0 0 0 0 0 0 0 0 0 0 0 0 0 0 0 0 0 0 0 0 0 0 0 1 2 3 4 4
0 0 0 0 0 0 0 0 1 1 0 0 0 0 0 0 0 0 0 0 0 0 0 0 0 0 0 0 0 0 0 0 0 0 0 0 0 0 0 0 1 3 3
0 0 0 0 0 0 0 1 2 2 1 0 0 0 0 0 0 0 0 0 0 0 0 0 0 0 0 0 0 0 0 0 0 0 0 0 0 0 0 0 0 2 3
0 0 0 0 0 0 1 2 3 2 1 0 0 0 0 0 0 0 0 0 0 0 0 0 0 0 0 0 0 0 0 0 0 0 0 0 0 0 0 0 0 2 4
0 0 0 0 0 0 1 2 3 1 0 0 0 0 0 0 0 0 0 0 0 0 0 0 0 0 0 0 0 0 0 0 0 0 0 0 0 0 0 0 0 1 3
0 0 0 0 0 0 1 2 2 1 0 0 0 0 0 0 0 0 0 0 0 0 0 0 0 0 0 0 0 0 0 0 0 0 0 0 0 0 0 0 1 1 2
0 0 0 0 0 0 0 1 1 0 0 0 0 0 0 0 0 0 0 0 0 0 0 0 0 0 0 0 0 0 0 0 0 0 0 0 0 0 1 1 2 3 3
0 0 0 0 0 0 0 0 0 0 0 0 0 0 0 0 0 0 0 0 0 0 0 0 0 0 0 0 0 0 0 0 0 0 0 0 0 0 1 2 2 2 2
0 0 0 0 0 0 0 0 0 0 0 0 0 0 0 0 0 0 0 0 0 0 0 0 0 0 0 0 0 0 0 0 0 0 0 0 0 0 1 1 1 1 1
0 0 0 0 0 0 0 0 0 0 0 0 0 0 0 0 0 0 0 0 0 0 0 0 0 0 0 0 0 0 0 0 0 0 0 0 0 0 0 0 0 0 0
0 0 0 0 0 0 0 0 0 0 0 0 0 0 0 0 0 0 0 0 0 0 0 0 0 0 0 0 0 0 0 0 0 0 0 0 0 0 0 0 0 0 0
Wind_Speed
1 2 0 4 6 7 7 8 8 8 8 8 8 9 9 10 10 10 10 10 10 9 9 8 8 8 8 8 8 7 7 7 6 6 6 5 5 5 5 5 4 2 5
1 1 2 4 6 7 7 7 7 7 7 8 8 9 9 9 9 9 9 9 9 9 9 9 9 9 8 8 8 7 7 6 6 6 5 4 4 4 4 4 4 2 4
2 1 2 4 6 7 7 7 7 7 7 7 8 8 9 9 9 9 9 9 9 9 9 9 8 9 9 8 8 8 7 7 6 6 5 3 2 3 4 4 4 3 3
3 2 2 5 6 6 6 6 7 7 7 7 7 8 8 8 8 8 9 9 9 9 9 8 8 9 9 8 8 7 7 7 7 6 3 2 2 3 3 3 3 3 3
3 2 2 5 6 6 6 6 6 7 7 7 8 8 8 8 8 8 8 8 8 8 8 8 8 8 8 8 8 7 7 7 7 5 2 2 1 2 3 3 3 2 2
3 2 2 5 6 6 6 6 6 6 7 7 7 7 7 7 7 8 8 8 8 7 7 7 7 7 7 8 8 8 8 8 6 4 3 2 1 2 3 3 3 3 2
2 2 2 5 6 6 6 6 6 6 7 7 7 6 7 7 7 7 7 7 7 7 7 7 7 7 7 7 7 7 7 8 5 4 4 3 2 4 4 4 4 4 4
3 2 2 5 6 5 6 6 6 7 7 7 7 7 7 6 6 6 6 7 7 7 7 7 7 7 7 7 7 7 8 7 5 4 4 3 4 5 6 5 5 5 4
3 3 3 3 3 5 6 6 6 7 7 7 7 7 7 7 6 7 6 6 6 6 6 7 7 8 8 8 8 8 8 8 5 3 3 2 4 5 6 5 5 6 6
3 3 3 3 3 3 3 5 6 6 7 7 7 7 7 7 7 7 6 6 6 6 7 8 8 9 8 8 8 8 8 7 4 4 3 3 5 5 5 6 5 5 6
2 2 2 2 3 3 3 4 5 6 6 6 6 8 7 5 5 5 6 7 7 8 9 9 9 9 9 8 9 9 7 3 3 3 2 4 5 5 5 5 5 5 5
1 1 1 2 2 2 2 3 3 3 4 4 4 4 3 4 4 5 7 8 8 9 9 9 9 8 6 4 6 7 3 4 3 3 3 6 5 5 4 5 5 5 5
1 1 1 1 2 2 2 2 2 2 2 3 3 3 3 3 3 4 3 4 5 6 5 6 6 4 4 3 3 3 4 3 3 3 3 6 6 6 5 5 5 5 6
2 1 1 1 2 1 1 1 1 1 1 1 2 2 2 2 2 2 2 3 3 2 3 3 3 3 4 4 3 4 4 3 3 3 3 7 6 6 6 6 6 6 6
2 1 1 2 2 1 1 1 2 1 1 1 1 1 2 2 2 2 2 2 2 2 3 3 3 3 3 3 3 4 4 4 4 4 3 7 7 6 6 5 5 5 5
2 2 1 2 2 2 1 1 1 1 1 1 1 2 2 2 2 2 2 2 2 2 2 2 3 3 2 2 3 3 3 3 4 4 4 5 8 8 7 6 5 4 4
2 2 1 2 2 2 1 1 1 1 1 1 1 2 2 2 2 2 2 2 2 2 2 2 3 3 3 3 3 3 3 3 3 4 4 3 4 7 8 7 6 5 4
2 2 2 2 2 2 2 1 1 2 2 1 1 1 2 2 3 2 2 2 2 2 2 2 2 3 3 3 2 2 3 3 3 4 4 4 4 4 6 8 7 6 5
3 3 2 2 2 2 2 2 2 2 2 1 1 1 2 2 3 3 2 1 2 2 2 2 2 2 2 2 2 2 3 2 3 3 4 4 4 3 3 6 8 8 7
3 3 2 2 2 2 2 2 2 2 2 1 1 1 2 2 3 3 2 2 2 2 2 2 2 2 1 1 2 3 2 2 2 3 4 4 3 4 4 4 4 5 8
3 3 3 3 2 2 2 2 1 1 1 1 1 1 2 2 2 2 2 2 2 2 1 1 1 2 2 1 2 3 3 2 3 3 3 3 4 4 4 4 3 3 3
4 4 3 3 3 3 2 2 1 1 1 1 1 2 2 2 2 2 2 2 2 2 2 2 2 1 1 2 2 2 3 4 3 3 3 3 3 3 3 4 3 3 3
5 5 4 4 3 3 3 3 2 2 2 2 2 1 1 1 1 2 2 2 2 2 1 0 1 2 1 1 2 2 2 1 3 3 3 3 3 3 3 3 3 3 3
6 5 4 4 4 3 4 4 4 3 2 1 1 0 0 1 1 1 1 2 1 1 1 1 1 1 2 1 1 1 1 2 1 2 3 3 3 3 3 3 3 3 3
6 5 4 4 4 3 4 5 4 3 2 1 1 1 1 1 1 1 1 1 1 1 1 1 1 1 1 1 1 1 1 1 1 1 2 3 3 2 2 2 2 2 2
4 4 4 4 4 4 4 4 4 4 3 3 1 1 0 1 1 1 0 0 1 1 1 1 1 1 1 1 1 1 1 1 1 1 1 2 3 3 2 2 2 2 2
Wind_Direction
281 280 273 87 85 80 77 81 86 86 87 89 88 89 90 90 91 89 90 89 87 85 85 84 83 81 80 81 78 78 79 83 86 87 88 91 96 102 106 106 106 104 118
189 210 126 95 93 88 84 85 87 86 88 89 87 86 88 88 88 90 90 87 86 85 84 82 79 77 76 75 73 71 71 72 74 78 78 78 91 104 105 109 117 121 124
117 116 119 101 97 94 90 89 90 87 87 91 88 88 88 86 86 88 88 87 84 84 82 78 73 73 72 69 68 66 63 65 67 67 62 40 53 104 105 102 106 112 122
121 99 107 105 98 94 93 93 92 92 90 92 90 92 91 88 89 88 88 86 84 83 81 77 75 73 72 69 66 63 59 63 60 57 47 29 33 87 98 94 94 105 122
102 86 107 108 101 94 92 90 90 94 93 90 88 91 91 91 91 89 88 86 85 83 79 75 74 73 72 70 65 64 62 60 59 48 32 19 27 74 83 81 74 83 111
94 81 100 107 103 96 92 92 88 95 97 93 90 91 90 89 87 86 84 82 80 78 77 74 71 73 72 69 67 64 61 57 51 33 20 16 53 78 79 78 69 71 95
104 85 92 103 98 95 94 94 90 93 95 94 92 92 90 86 83 82 81 78 76 71 71 71 68 69 68 68 67 65 63 60 52 37 30 35 58 71 67 72 70 69 87
97 83 78 98 95 92 93 91 90 92 90 88 87 88 86 83 78 76 76 75 73 67 63 63 63 64 64 67 67 67 65 60 55 40 33 36 59 59 57 57 58 70 78
77 75 58 57 71 82 86 87 86 86 83 83 83 80 75 74 76 73 66 68 71 68 63 60 60 62 63 65 67 67 64 59 48 34 38 37 56 57 55 51 58 64 65
69 69 67 57 54 52 49 74 82 81 77 73 72 71 66 59 55 57 52 53 59 63 61 58 59 58 58 57 62 63 59 51 37 31 22 41 54 56 55 52 58 61 63
76 59 65 64 54 51 50 54 61 68 62 58 52 55 50 37 33 36 43 49 56 60 59 57 56 55 54 51 56 57 51 38 31 24 15 41 51 55 55 55 54 56 60
138 84 65 67 66 57 53 50 41 47 47 49 46 42 39 37 32 35 37 46 49 51 50 49 49 51 49 40 45 46 38 30 29 14 22 34 45 52 56 58 58 59 61
158 106 92 89 75 73 57 60 48 43 46 44 46 44 45 41 34 32 31 29 32 38 35 37 39 39 44 42 41 39 34 31 22 7 14 29 39 46 56 65 69 64 62
125 130 103 119 102 94 85 74 70 58 54 48 42 51 60 52 42 33 36 28 32 31 31 33 40 44 46 44 45 41 35 30 17 4 7 27 34 43 50 60 69 65 63
150 170 158 122 123 116 96 83 83 71 67 57 49 53 73 75 60 48 41 37 35 37 39 37 37 43 47 44 43 44 33 26 18 13 0 20 29 33 40 48 58 59 61
179 182 168 139 140 121 120 118 105 90 74 61 53 56 79 85 81 70 55 44 35 35 42 51 48 43 43 47 46 41 31 26 21 15 9 9 18 27 35 38 43 51 53
180 172 162 158 136 128 141 137 121 112 97 79 59 57 73 85 89 84 72 55 32 34 49 53 47 43 45 45 40 35 32 26 24 17 13 10 5 15 24 31 33 40 41
161 158 166 152 132 143 138 122 102 101 104 95 82 73 80 92 96 86 77 56 30 42 53 60 48 44 36 35 29 20 25 23 20 21 19 15 12 11 10 20 26 29 28
167 164 155 130 134 137 124 110 97 92 89 87 89 93 100 103 104 101 87 59 47 55 53 58 52 53 46 32 31 30 23 21 13 22 20 16 11 9 8 12 21 21 21
161 153 149 131 124 114 95 85 77 68 61 65 75 69 96 108 111 108 99 75 65 65 52 56 63 48 49 32 41 34 17 12 18 19 14 11 13 13 13 16 16 7 16
147 144 144 141 133 120 103 109 112 102 66 55 62 68 82 96 110 114 104 89 78 79 71 70 72 57 36 21 49 19 4 13 26 13 7 13 16 11 13 17 19 12 2
168 166 157 158 161 164 151 135 129 127 115 105 55 62 76 99 117 128 127 123 110 95 69 59 69 67 35 33 78 64 8 352 357 3 2 12 7 3 10 12 19 15 10
179 177 172 175 173 169 144 111 87 65 49 40 32 29 28 87 109 124 138 130 121 116 121 95 87 95 81 19 54 111 110 286 318 334 356 10 5 5 359 359 18 12 12
196 184 174 173 166 156 147 143 142 140 150 192 195 305 354 76 91 106 118 124 125 126 135 163 109 113 115 76 25 50 117 155 135 326 334 348 355 2 355 359 360 2 9
187 180 177 164 158 151 156 159 155 145 149 125 98 76 28 13 45 89 134 141 148 157 163 159 115 122 130 144 140 116 80 66 103 133 309 328 340 342 349 345 346 352 356
169 171 171 162 163 162 161 161 162 157 152 144 147 148 11 347 359 18 109 160 187 187 193 193 166 156 153 145 153 155 160 163 175 155 217 295 312 314 332 337 343 335 337